This is the latest recevied weather packets stored in our database for station/object OE3UKW. If no packets are shown the sender has not sent any weather packets the latest 10 day(s).
| Time | Temp. | Humidity | Pressure | Rain* | Wind** | Luminosity | Snow |
|---|---|---|---|---|---|---|---|
| 1777120872 | 24.44° C | 24% | 1014.2 hPa | 0 mm | - | 733 W/m² | - |
| 1777120272 | 24.44° C | 23% | 1014.3 hPa | 0 mm | - | 724 W/m² | - |
| 1777119672 | 24.44° C | 23% | 1014.6 hPa | 0 mm | - | 755 W/m² | - |
| 1777119072 | 23.89° C | 25% | 1014.5 hPa | 0 mm | - | 765 W/m² | - |
| 1777118472 | 23.89° C | 23% | 1014.7 hPa | 0 mm | - | 776 W/m² | - |
| 1777117872 | 23.89° C | 25% | 1014.9 hPa | 0 mm | - | 793 W/m² | - |
| 1777117272 | 23.33° C | 24% | 1014.7 hPa | 0 mm | - | 804 W/m² | - |
| 1777116672 | 23.33° C | 27% | 1014.9 hPa | 0 mm | - | 807 W/m² | - |
| 1777116072 | 22.78° C | 27% | 1015.2 hPa | 0 mm | - | 808 W/m² | - |
| 1777115472 | 22.78° C | 26% | 1015.3 hPa | 0 mm | - | 811 W/m² | - |
| 1777114872 | 22.22° C | 28% | 1015.6 hPa | 0 mm | - | 810 W/m² | - |
| 1777114272 | 21.67° C | 31% | 1015.7 hPa | 0 mm | - | 799 W/m² | - |
| 1777113672 | 21.67° C | 29% | 1015.7 hPa | 0 mm | - | 809 W/m² | - |
| 1777113072 | 21.11° C | 33% | 1015.8 hPa | 0 mm | - | 810 W/m² | - |
| 1777112472 | 20.56° C | 32% | 1015.9 hPa | 0 mm | - | 796 W/m² | - |
| 1777111872 | 20.56° C | 32% | 1016 hPa | 0 mm | - | 781 W/m² | - |
| 1777111272 | 20.56° C | 34% | 1016.2 hPa | 0 mm | - | 783 W/m² | - |
| 1777110672 | 20° C | 36% | 1016.3 hPa | 0 mm | - | 762 W/m² | - |
| 1777110071 | 19.44° C | 37% | 1016.4 hPa | 0 mm | - | 771 W/m² | - |
| 1777109471 | 19.44° C | 37% | 1016.3 hPa | 0 mm | - | 754 W/m² | - |
| 1777108872 | 18.89° C | 38% | 1016.4 hPa | 0 mm | - | 752 W/m² | - |
| 1777108271 | 18.33° C | 39% | 1016.4 hPa | 0 mm | - | 706 W/m² | - |
| 1777107671 | 18.33° C | 38% | 1016.5 hPa | 0 mm | - | 678 W/m² | - |
| 1777107071 | 17.78° C | 40% | 1016.7 hPa | 0 mm | - | 703 W/m² | - |
| 1777106471 | 17.78° C | 40% | 1016.6 hPa | 0 mm | - | 608 W/m² | - |
* Rain latest hour (hover to see other rain measurements)
** Current wind speed in m/s (hover to see current wind gust speed)